Time,TemperatureF,DewpointF,PressureIn,WindDirection,WindDirectionDegrees,WindSpeedMPH,WindSpeedGustMPH,Humidity,HourlyPrecipIn,Conditions,Clouds,dailyrainin,SoftwareType,DateUTC
2013-08-21 00:09:00,48.3,44.0,29.89,South,190,0.0,1.0,84,0.00,,,0.00,weatherlink.com 1.10,2013-08-21 06:09:00,
2013-08-21 00:24:00,48.5,43.0,29.89,SSW,196,0.0,0.0,81,0.00,,,0.00,weatherlink.com 1.10,2013-08-21 06:24:00,
2013-08-21 00:39:00,48.3,43.0,29.89,SSW,196,0.0,0.0,82,0.00,,,0.00,weatherlink.com 1.10,2013-08-21 06:39:00,
2013-08-21 00:54:00,48.1,43.0,29.89,SSW,196,0.0,1.0,82,0.00,,,0.00,weatherlink.com 1.10,2013-08-21 06:54:00,
2013-08-21 01:09:00,48.1,43.0,29.90,SSW,196,1.0,1.0,83,0.00,,,0.00,weatherlink.com 1.10,2013-08-21 07:09:00,
2013-08-21 01:24:00,48.6,43.0,29.90,SSW,203,0.0,2.0,80,0.00,,,0.00,weatherlink.com 1.10,2013-08-21 07:24:00,
2013-08-21 01:39:00,48.8,43.0,29.90,SSW,203,0.0,0.0,81,0.00,,,0.00,weatherlink.com 1.10,2013-08-21 07:39:00,
2013-08-21 01:54:00,48.3,43.0,29.90,SSW,203,0.0,0.0,83,0.00,,,0.00,weatherlink.com 1.10,2013-08-21 07:54:00,
2013-08-21 02:09:00,48.4,43.0,29.90,SSW,203,0.0,1.0,81,0.00,,,0.00,weatherlink.com 1.10,2013-08-21 08:09:00,
2013-08-21 02:24:00,48.8,43.0,29.91,SW,214,1.0,1.0,81,0.00,,,0.00,weatherlink.com 1.10,2013-08-21 08:24:00,
2013-08-21 02:39:00,48.7,44.0,29.90,SSW,210,0.0,1.0,83,0.00,,,0.00,weatherlink.com 1.10,2013-08-21 08:39:00,
2013-08-21 02:54:00,47.9,43.0,29.91,SSW,210,0.0,0.0,83,0.00,,,0.00,weatherlink.com 1.10,2013-08-21 08:54:00,
2013-08-21 03:09:00,47.5,43.0,29.90,SSW,210,0.0,0.0,85,0.00,,,0.00,weatherlink.com 1.10,2013-08-21 09:09:00,
2013-08-21 03:24:00,46.7,42.0,29.90,SSW,209,0.0,1.0,84,0.00,,,0.00,weatherlink.com 1.10,2013-08-21 09:24:00,
2013-08-21 03:39:00,45.7,41.0,29.90,SSW,208,0.0,1.0,84,0.00,,,0.00,weatherlink.com 1.10,2013-08-21 09:39:00,
2013-08-21 03:54:00,44.9,41.0,29.90,SSW,208,0.0,1.0,86,0.00,,,0.00,weatherlink.com 1.10,2013-08-21 09:54:00,
2013-08-21 04:09:00,44.3,40.0,29.90,SSW,208,0.0,1.0,86,0.00,,,0.00,weatherlink.com 1.10,2013-08-21 10:09:00,
2013-08-21 04:24:00,43.5,40.0,29.91,SSW,208,0.0,1.0,88,0.00,,,0.00,weatherlink.com 1.10,2013-08-21 10:24:00,
2013-08-21 04:39:00,42.9,40.0,29.91,SSW,208,0.0,0.0,88,0.00,,,0.00,weatherlink.com 1.10,2013-08-21 10:39:00,
2013-08-21 04:54:00,42.3,39.0,29.91,SSW,208,1.0,1.0,89,0.00,,,0.00,weatherlink.com 1.10,2013-08-21 10:54:00,
2013-08-21 05:10:00,42.4,39.0,29.91,SSW,208,0.0,1.0,89,0.00,,,0.00,weatherlink.com 1.10,2013-08-21 11:10:00,
2013-08-21 05:25:00,42.0,39.0,29.91,SSW,207,0.0,1.0,90,0.00,,,0.00,weatherlink.com 1.10,2013-08-21 11:25:00,
2013-08-21 05:40:00,41.7,39.0,29.91,SSW,207,1.0,1.0,90,0.00,,,0.00,weatherlink.com 1.10,2013-08-21 11:40:00,
2013-08-21 05:55:00,41.7,39.0,29.92,SSW,209,0.0,2.0,90,0.00,,,0.00,weatherlink.com 1.10,2013-08-21 11:55:00,
2013-08-21 06:10:00,41.0,38.0,29.93,SSW,209,0.0,0.0,90,0.00,,,0.00,weatherlink.com 1.10,2013-08-21 12:10:00,
2013-08-21 06:25:00,40.5,38.0,29.94,SSW,209,0.0,1.0,92,0.00,,,0.00,weatherlink.com 1.10,2013-08-21 12:25:00,
2013-08-21 06:40:00,40.4,38.0,29.95,SSW,209,1.0,1.0,92,0.00,,,0.00,weatherlink.com 1.10,2013-08-21 12:40:00,
2013-08-21 06:55:00,40.5,38.0,29.95,SSW,207,1.0,1.0,92,0.00,,,0.00,weatherlink.com 1.10,2013-08-21 12:55:00,
2013-08-21 07:10:00,40.7,39.0,29.95,SSW,207,0.0,1.0,92,0.00,,,0.00,weatherlink.com 1.10,2013-08-21 13:10:00,
2013-08-21 07:25:00,40.6,39.0,29.96,SSW,207,0.0,0.0,93,0.00,,,0.00,weatherlink.com 1.10,2013-08-21 13:25:00,
2013-08-21 07:40:00,43.9,41.0,29.96,SSW,207,0.0,1.0,88,0.00,,,0.00,weatherlink.com 1.10,2013-08-21 13:40:00,
2013-08-21 07:55:00,47.5,43.0,29.96,SSW,207,0.0,1.0,83,0.00,,,0.00,weatherlink.com 1.10,2013-08-21 13:55:00,
2013-08-21 08:10:00,52.1,45.0,29.96,SSW,207,0.0,0.0,76,0.00,,,0.00,weatherlink.com 1.10,2013-08-21 14:10:00,
2013-08-21 08:25:00,53.2,45.0,29.95,SSW,201,0.0,0.0,74,0.00,,,0.00,weatherlink.com 1.10,2013-08-21 14:25:00,
2013-08-21 08:40:00,57.4,46.0,29.94,SSW,201,0.0,0.0,66,0.00,,,0.00,weatherlink.com 1.10,2013-08-21 14:40:00,
2013-08-21 08:55:00,56.5,45.0,29.93,South,184,0.0,2.0,66,0.00,,,0.00,weatherlink.com 1.10,2013-08-21 14:55:00,
2013-08-21 09:10:00,59.2,44.0,29.93,South,184,0.0,1.0,58,0.00,,,0.00,weatherlink.com 1.10,2013-08-21 15:10:00,
2013-08-21 09:25:00,59.9,43.0,29.92,South,174,0.0,2.0,54,0.00,,,0.00,weatherlink.com 1.10,2013-08-21 15:25:00,
2013-08-21 09:40:00,61.3,44.0,29.91,SSE,156,2.0,4.0,54,0.00,,,0.00,weatherlink.com 1.10,2013-08-21 15:40:00,
2013-08-21 09:55:00,61.4,45.0,29.92,SSE,159,3.0,5.0,55,0.00,,,0.00,weatherlink.com 1.10,2013-08-21 15:55:00,
2013-08-21 10:10:00,62.8,45.0,29.91,SE,137,4.0,5.0,52,0.00,,,0.00,weatherlink.com 1.10,2013-08-21 16:10:00,
2013-08-21 10:25:00,64.4,46.0,29.91,SSE,154,3.0,7.0,52,0.00,,,0.00,weatherlink.com 1.10,2013-08-21 16:25:00,
2013-08-21 10:40:00,65.5,46.0,29.91,SSE,168,2.0,8.0,49,0.00,,,0.00,weatherlink.com 1.10,2013-08-21 16:40:00,
2013-08-21 10:55:00,66.6,47.0,29.90,SSE,153,4.0,7.0,49,0.00,,,0.00,weatherlink.com 1.10,2013-08-21 16:55:00,
2013-08-21 11:11:00,68.0,45.0,29.90,SSE,151,6.0,8.0,43,0.00,,,0.00,weatherlink.com 1.10,2013-08-21 17:11:00,
2013-08-21 11:26:00,69.3,46.0,29.89,SE,142,7.0,10.0,43,0.00,,,0.00,weatherlink.com 1.10,2013-08-21 17:26:00,
2013-08-21 11:41:00,69.6,45.0,29.88,South,169,2.0,10.0,42,0.00,,,0.00,weatherlink.com 1.10,2013-08-21 17:41:00,
2013-08-21 11:56:00,70.5,46.0,29.87,SSE,152,7.0,14.0,41,0.00,,,0.00,weatherlink.com 1.10,2013-08-21 17:56:00,
2013-08-21 12:11:00,71.0,44.0,29.87,SSE,158,6.0,11.0,38,0.00,,,0.00,weatherlink.com 1.10,2013-08-21 18:11:00,
2013-08-21 12:26:00,72.0,44.0,29.86,ESE,120,8.0,10.0,36,0.00,,,0.00,weatherlink.com 1.10,2013-08-21 18:26:00,
2013-08-21 12:41:00,72.0,46.0,29.85,SSE,159,4.0,10.0,39,0.00,,,0.00,weatherlink.com 1.10,2013-08-21 18:41:00,
2013-08-21 12:56:00,73.3,42.0,29.84,SSW,209,2.0,10.0,33,0.00,,,0.00,weatherlink.com 1.10,2013-08-21 18:56:00,
2013-08-21 13:11:00,75.6,44.0,29.84,SSW,197,0.0,6.0,33,0.00,,,0.00,weatherlink.com 1.10,2013-08-21 19:11:00,
2013-08-21 13:26:00,74.1,44.0,29.84,South,188,0.0,3.0,34,0.00,,,0.00,weatherlink.com 1.10,2013-08-21 19:26:00,
2013-08-21 13:41:00,70.8,48.0,29.85,South,191,1.0,6.0,44,0.01,,,0.01,weatherlink.com 1.10,2013-08-21 19:41:00,
2013-08-21 13:56:00,58.3,48.0,29.86,WSW,240,3.0,7.0,68,0.04,,,0.04,weatherlink.com 1.10,2013-08-21 19:56:00,
2013-08-21 14:11:00,56.3,50.0,29.86,SW,229,3.0,9.0,78,0.04,,,0.04,weatherlink.com 1.10,2013-08-21 20:11:00,
2013-08-21 14:26:00,56.2,51.0,29.86,SSW,195,0.0,10.0,83,0.07,,,0.07,weatherlink.com 1.10,2013-08-21 20:26:00,
2013-08-21 14:41:00,55.8,51.0,29.86,SSW,199,0.0,6.0,85,0.07,,,0.08,weatherlink.com 1.10,2013-08-21 20:41:00,
2013-08-21 14:56:00,55.6,50.0,29.87,SSW,205,1.0,5.0,82,0.04,,,0.08,weatherlink.com 1.10,2013-08-21 20:56:00,
2013-08-21 15:11:00,54.8,51.0,29.87,SSW,201,1.0,4.0,86,0.04,,,0.08,weatherlink.com 1.10,2013-08-21 21:11:00,
2013-08-21 15:26:00,53.9,50.0,29.88,SSW,202,1.0,4.0,87,0.02,,,0.09,weatherlink.com 1.10,2013-08-21 21:26:00,
2013-08-21 15:41:00,53.2,50.0,29.89,South,189,0.0,1.0,89,0.01,,,0.09,weatherlink.com 1.10,2013-08-21 21:41:00,
2013-08-21 15:56:00,53.3,51.0,29.90,SSW,193,1.0,1.0,91,0.02,,,0.10,weatherlink.com 1.10,2013-08-21 21:56:00,
2013-08-21 16:11:00,53.3,51.0,29.91,SSW,193,0.0,1.0,92,0.02,,,0.10,weatherlink.com 1.10,2013-08-21 22:11:00,
2013-08-21 16:26:00,53.7,52.0,29.91,SSW,193,0.0,0.0,92,0.01,,,0.10,weatherlink.com 1.10,2013-08-21 22:26:00,
2013-08-21 16:41:00,54.2,52.0,29.91,SSW,210,0.0,3.0,91,0.01,,,0.10,weatherlink.com 1.10,2013-08-21 22:41:00,
2013-08-21 16:56:00,54.7,52.0,29.92,South,179,0.0,2.0,89,0.00,,,0.10,weatherlink.com 1.10,2013-08-21 22:56:00,
2013-08-21 17:11:00,54.8,52.0,29.93,South,186,1.0,7.0,89,0.00,,,0.10,weatherlink.com 1.10,2013-08-21 23:11:00,
2013-08-21 17:26:00,54.5,51.0,29.94,South,173,0.0,3.0,89,0.01,,,0.11,weatherlink.com 1.10,2013-08-21 23:26:00,
2013-08-21 17:41:00,53.7,52.0,29.94,SSW,200,0.0,3.0,93,0.03,,,0.13,weatherlink.com 1.10,2013-08-21 23:41:00,
2013-08-21 17:56:00,53.6,52.0,29.95,SSW,201,0.0,2.0,94,0.04,,,0.14,weatherlink.com 1.10,2013-08-21 23:56:00,
2013-08-21 18:11:00,53.1,51.0,29.95,SSW,205,0.0,1.0,93,0.04,,,0.14,weatherlink.com 1.10,2013-08-22 00:11:00,
2013-08-21 18:26:00,53.1,52.0,29.95,SSW,206,0.0,1.0,94,0.02,,,0.14,weatherlink.com 1.10,2013-08-22 00:26:00,
2013-08-21 18:41:00,53.2,52.0,29.95,SSW,207,1.0,2.0,94,0.01,,,0.14,weatherlink.com 1.10,2013-08-22 00:41:00,
2013-08-21 18:56:00,53.2,51.0,29.94,SSW,204,0.0,1.0,93,0.00,,,0.14,weatherlink.com 1.10,2013-08-22 00:56:00,
2013-08-21 19:11:00,53.1,51.0,29.95,SSW,204,0.0,0.0,93,0.00,,,0.14,weatherlink.com 1.10,2013-08-22 01:11:00,
2013-08-21 19:26:00,52.4,50.0,29.96,SW,219,2.0,3.0,92,0.00,,,0.14,weatherlink.com 1.10,2013-08-22 01:26:00,
2013-08-21 19:41:00,52.5,50.0,29.96,SSW,205,0.0,3.0,91,0.00,,,0.14,weatherlink.com 1.10,2013-08-22 01:41:00,
2013-08-21 19:56:00,52.0,49.0,29.96,South,189,1.0,1.0,90,0.00,,,0.14,weatherlink.com 1.10,2013-08-22 01:56:00,
2013-08-21 20:11:00,51.2,49.0,29.97,South,190,0.0,0.0,93,0.00,,,0.14,weatherlink.com 1.10,2013-08-22 02:11:00,
2013-08-21 20:26:00,50.5,49.0,29.98,South,190,0.0,0.0,93,0.00,,,0.14,weatherlink.com 1.10,2013-08-22 02:26:00,
2013-08-21 20:41:00,50.0,48.0,29.98,SSW,205,0.0,2.0,93,0.00,,,0.14,weatherlink.com 1.10,2013-08-22 02:41:00,
2013-08-21 20:56:00,49.6,48.0,29.99,SSW,205,1.0,1.0,93,0.00,,,0.14,weatherlink.com 1.10,2013-08-22 02:56:00,
2013-08-21 21:11:00,49.5,48.0,30.00,SSW,209,0.0,1.0,93,0.00,,,0.14,weatherlink.com 1.10,2013-08-22 03:11:00,
2013-08-21 21:26:00,49.4,48.0,30.01,SSW,209,0.0,1.0,93,0.00,,,0.14,weatherlink.com 1.10,2013-08-22 03:26:00,
2013-08-21 21:41:00,49.3,48.0,30.02,SSW,209,0.0,1.0,94,0.00,,,0.14,weatherlink.com 1.10,2013-08-22 03:41:00,
2013-08-21 21:57:00,49.2,48.0,30.02,SSW,209,1.0,1.0,94,0.00,,,0.14,weatherlink.com 1.10,2013-08-22 03:57:00,
2013-08-21 22:12:00,49.2,48.0,30.02,SSW,211,0.0,2.0,94,0.00,,,0.14,weatherlink.com 1.10,2013-08-22 04:12:00,
2013-08-21 22:27:00,48.7,47.0,30.03,SSW,205,1.0,1.0,94,0.00,,,0.14,weatherlink.com 1.10,2013-08-22 04:27:00,
2013-08-21 22:42:00,48.5,47.0,30.04,SSW,206,1.0,1.0,94,0.00,,,0.14,weatherlink.com 1.10,2013-08-22 04:42:00,
2013-08-21 22:57:00,48.3,47.0,30.03,SSW,206,0.0,2.0,94,0.00,,,0.14,weatherlink.com 1.10,2013-08-22 04:57:00,
2013-08-21 23:12:00,47.5,46.0,30.03,SSW,206,0.0,0.0,94,0.00,,,0.14,weatherlink.com 1.10,2013-08-22 05:12:00,
2013-08-21 23:27:00,47.3,46.0,30.03,SSW,208,0.0,3.0,94,0.00,,,0.14,weatherlink.com 1.10,2013-08-22 05:27:00,
2013-08-21 23:42:00,47.1,46.0,30.03,SSW,208,0.0,4.0,94,0.00,,,0.14,weatherlink.com 1.10,2013-08-22 05:42:00,
2013-08-21 23:57:00,46.9,45.0,30.04,SSW,208,0.0,1.0,94,0.00,,,0.14,weatherlink.com 1.10,2013-08-22 05:57:00,